Theta_e
357 358 361 364 364 366 363 365 362 362 362 347 350 354 356 366 363 364 364 365 365 361 356 355 355 354 357 358 359 360 359 364 364 356 353 355 351 355 359 360 362 360 361 359 357 356 354 355 355 355 356 355 355 355 355 354 355 356 356 356 357 356 356 353 350 345 342 347 353 352 350 350 347 344 341 347 349 344 343 345 348 349 348 347 344 341 340 340 339 340 340 339 339 338 338 338 338
357 360 362 362 362 365 362 366 360 352 348 345 357 359 358 368 364 363 364 364 363 357 355 355 354 353 353 354 355 358 359 359 360 358 353 349 349 356 360 360 361 360 360 358 357 359 356 354 355 355 356 354 355 355 355 356 356 356 357 357 356 357 357 354 354 349 344 345 350 351 350 350 350 349 347 351 351 343 343 346 349 350 349 348 345 342 340 340 339 340 340 339 339 338 337 337 337
359 360 360 361 362 363 364 367 358 349 348 347 356 366 364 366 366 365 363 360 359 356 355 356 356 355 354 358 359 361 362 358 355 350 346 346 351 356 359 360 360 360 359 358 359 360 357 354 355 356 356 355 355 356 356 356 356 356 356 357 357 358 357 354 353 351 348 346 349 350 351 351 352 352 352 354 349 343 346 348 351 350 349 349 344 342 340 339 339 339 341 340 338 336 335 335 336
358 361 360 361 363 362 365 367 360 355 351 347 349 363 367 363 367 363 361 357 356 356 356 358 358 355 357 361 360 361 361 356 353 348 344 347 350 354 359 360 360 360 359 360 359 358 357 355 355 355 356 357 356 355 356 356 355 354 355 357 357 357 358 356 353 351 350 348 349 351 352 352 353 354 354 355 351 349 351 351 353 351 350 349 344 341 340 339 337 337 340 340 337 334 333 333 333
358 361 359 359 365 361 364 363 362 358 350 350 349 360 368 362 366 363 357 356 354 357 356 358 358 356 356 358 358 362 360 355 352 350 348 347 351 355 358 360 360 360 359 360 360 359 357 356 356 355 355 355 355 355 356 356 354 354 354 355 356 357 358 358 355 353 350 349 349 351 354 354 355 355 355 355 354 355 354 353 353 352 351 348 343 341 340 338 337 336 337 337 337 334 332 332 332
360 362 359 359 363 359 361 355 355 356 357 363 357 362 365 361 367 366 356 355 353 357 358 358 357 356 356 357 356 359 358 355 353 352 351 347 353 357 359 360 360 360 360 360 360 360 357 355 356 356 356 354 354 355 355 355 355 355 355 356 356 357 358 358 357 355 352 349 347 348 354 356 355 355 355 355 355 356 356 354 353 352 352 348 343 340 338 338 337 336 335 337 338 334 332 331 333
360 363 360 361 362 360 360 351 351 356 360 367 363 365 365 364 369 366 360 358 357 358 358 356 353 358 360 358 357 359 358 357 355 351 348 347 353 356 358 359 359 359 359 360 360 359 358 355 354 355 356 355 354 355 355 355 355 355 355 355 355 356 357 357 357 356 354 350 345 344 349 354 355 355 355 355 355 356 355 353 352 352 351 348 343 339 338 339 337 336 335 337 339 336 333 332 333
359 360 357 360 364 367 366 356 355 360 360 365 364 365 365 366 368 364 362 363 363 360 356 353 353 360 361 359 360 360 356 356 355 349 346 348 352 353 356 358 359 358 358 360 359 358 357 354 353 354 354 355 355 355 355 355 355 355 355 355 355 355 355 357 356 356 355 352 348 344 344 347 351 354 354 354 354 353 353 351 351 351 350 348 343 340 340 339 338 337 336 337 341 338 332 334 333
357 356 356 361 362 366 368 359 356 363 364 364 364 365 366 365 366 364 363 365 364 362 358 354 353 360 360 359 360 358 356 356 351 348 346 348 350 352 356 358 358 359 358 359 358 358 358 355 353 353 354 354 355 355 355 354 354 354 354 354 354 354 354 356 357 356 356 354 352 349 347 345 347 351 352 352 353 353 352 350 350 351 350 347 342 340 340 339 339 338 339 338 343 344 333 332 334
353 357 357 363 359 353 354 356 355 361 365 365 366 365 365 365 365 363 363 364 363 363 360 355 354 359 360 361 360 356 354 353 349 348 346 346 349 352 355 357 358 358 359 359 358 358 357 356 355 353 354 355 356 356 356 355 354 354 354 354 354 354 356 357 357 356 356 356 355 353 351 347 347 350 351 352 352 351 350 349 350 350 350 348 343 341 341 340 340 339 343 342 344 350 340 329 332
351 355 356 355 351 341 340 347 352 360 365 364 364 362 363 364 363 363 362 363 362 361 358 358 359 357 360 361 358 356 354 351 349 346 345 346 349 353 355 356 358 359 360 359 358 357 357 356 356 355 355 356 356 357 357 356 356 355 355 355 355 355 356 356 356 355 355 356 356 355 353 349 348 349 350 349 350 349 347 348 348 348 349 349 346 342 341 340 340 339 343 343 344 352 347 332 330
347 351 357 344 341 341 342 347 351 360 364 363 363 361 362 362 364 364 363 362 364 362 358 359 358 355 360 362 358 355 353 352 349 346 345 347 348 353 354 356 359 359 359 359 359 358 357 356 355 355 355 356 356 356 356 356 355 354 354 355 355 356 356 355 356 354 355 355 355 355 353 352 349 347 346 345 347 349 348 347 347 346 347 349 348 343 342 340 339 338 339 343 347 351 349 338 332
345 346 350 339 338 346 348 350 356 362 359 362 363 360 362 361 364 365 364 363 363 362 358 357 355 356 361 359 357 354 353 351 349 348 349 348 348 353 354 356 358 358 359 359 359 358 357 356 355 355 355 355 355 355 355 355 353 352 353 354 353 355 355 356 355 354 355 354 353 354 352 352 350 347 347 345 347 348 347 348 347 346 347 349 349 345 343 340 338 338 336 341 347 350 350 342 335
344 344 346 340 340 346 346 349 356 353 350 362 363 359 363 361 362 362 363 364 364 360 355 354 352 356 360 359 360 355 353 352 351 349 350 350 348 351 354 356 357 358 358 358 359 358 358 356 356 355 355 355 354 355 356 355 354 354 353 353 353 354 355 356 355 354 355 355 353 353 352 351 350 349 349 349 350 349 348 348 348 348 348 348 348 346 343 342 339 337 337 338 344 350 349 342 337
342 342 346 340 335 336 341 347 350 346 349 362 361 359 362 360 361 362 362 365 365 359 354 354 352 357 360 361 363 356 354 354 351 352 351 351 350 350 353 355 357 358 357 358 358 358 358 358 357 355 355 356 355 355 355 355 354 354 354 353 354 354 355 354 354 355 354 355 353 353 352 352 351 351 351 351 352 350 349 349 349 349 350 348 347 346 344 343 340 338 339 339 345 350 346 338 338
339 341 345 336 330 331 337 346 348 346 351 360 359 361 363 359 360 362 360 360 361 358 356 357 353 357 359 358 359 356 355 353 352 352 351 352 351 350 353 355 356 357 358 358 358 357 358 358 358 356 356 357 356 356 354 355 355 355 354 354 354 355 355 353 353 353 353 354 353 353 352 352 352 351 351 351 351 351 350 349 349 350 349 349 348 348 347 345 343 341 341 341 346 348 341 337 341
340 341 340 331 329 331 338 347 347 346 351 357 358 362 364 361 361 358 356 356 358 358 357 357 356 358 359 358 354 354 356 353 353 353 351 352 351 351 352 355 355 356 358 358 358 358 358 357 358 357 358 357 356 356 355 355 355 356 354 353 354 354 354 354 354 353 352 353 353 353 352 352 351 352 352 350 351 351 350 349 350 350 348 350 351 351 349 347 345 342 342 343 344 344 340 340 344
338 341 337 328 332 336 342 348 347 350 353 356 355 357 362 362 360 356 356 358 356 357 359 359 360 359 358 356 353 354 354 353 354 352 352 353 352 351 352 354 355 357 357 358 358 358 358 357 357 356 357 358 356 356 356 355 356 356 355 353 354 353 354 353 354 353 352 353 352 351 351 351 351 351 352 351 351 351 350 350 351 350 349 351 352 353 351 349 348 345 345 344 342 341 340 344 349
334 339 335 332 341 342 343 349 348 352 352 354 354 354 356 357 357 355 360 360 356 361 364 362 361 361 359 355 352 353 353 352 352 352 352 352 352 351 352 353 354 356 357 358 357 357 358 357 357 356 357 357 357 356 356 357 355 356 355 353 353 353 353 353 353 353 352 353 352 351 352 351 351 351 351 351 350 350 351 351 352 351 350 351 351 353 353 352 350 349 349 347 344 341 342 348 352
333 337 336 338 344 344 347 350 350 352 351 354 353 352 353 352 353 354 359 360 359 364 364 362 362 362 359 353 350 352 352 352 352 351 352 352 351 351 352 352 353 355 356 358 358 357 358 358 357 357 357 357 357 356 356 357 355 355 356 355 354 354 354 354 354 353 352 353 351 352 352 351 351 351 350 351 351 350 352 351 351 352 351 350 350 352 352 352 351 351 351 350 348 344 344 351 350
335 335 336 339 342 343 346 347 349 351 351 354 352 354 353 349 351 353 357 358 361 363 361 361 362 362 359 351 350 353 352 352 352 351 352 351 352 351 351 351 352 354 355 358 359 357 357 358 358 358 357 356 356 356 356 356 356 355 356 356 355 354 355 355 354 353 353 352 351 351 351 351 350 351 351 350 351 350 352 352 351 351 350 350 349 351 352 351 349 350 351 351 351 347 347 351 351
334 333 336 339 340 342 342 345 353 352 352 352 351 352 351 352 352 350 353 357 359 359 358 359 360 359 356 350 350 351 351 351 351 350 351 352 351 351 351 352 351 354 356 359 360 359 358 358 359 359 358 357 356 357 356 356 356 356 356 356 356 355 355 354 353 353 352 351 351 351 351 351 350 350 350 349 351 351 350 351 351 351 350 349 350 350 350 349 349 350 351 351 351 349 349 351 351
332 333 335 337 339 342 342 348 354 351 349 351 352 351 349 352 354 349 350 355 354 353 355 357 358 357 353 351 350 350 349 348 350 351 351 351 351 351 351 351 351 353 355 357 359 359 358 358 359 359 359 359 357 356 356 357 356 356 355 355 356 355 354 353 353 353 352 351 352 351 350 350 350 350 350 349 351 351 350 350 350 351 350 350 350 350 349 349 350 351 351 350 350 352 352 352 352
331 331 335 336 338 339 339 346 351 350 352 353 356 353 349 351 351 347 348 351 350 350 353 354 356 356 353 351 349 349 349 349 351 351 350 350 350 350 351 350 350 351 355 355 356 359 358 358 359 359 360 359 358 357 357 357 357 357 356 356 356 354 354 353 353 353 351 351 351 351 350 350 350 350 350 351 351 351 350 349 348 349 350 350 350 350 350 351 351 351 350 350 350 352 352 352 352
330 330 335 339 338 338 338 346 350 352 355 356 357 354 352 350 347 347 347 347 348 349 350 351 353 354 354 351 350 351 348 349 351 350 351 350 349 350 351 352 351 352 353 354 355 357 359 359 359 359 359 360 358 357 357 358 358 357 357 356 356 354 354 355 354 354 352 352 351 350 351 351 351 351 350 350 351 350 350 348 348 349 350 350 351 350 350 350 349 350 350 351 351 352 352 352 351
330 329 334 337 337 339 339 347 350 352 357 357 353 352 350 350 349 348 346 345 345 348 350 351 353 354 356 354 352 352 349 350 352 351 350 350 352 353 353 353 353 353 353 353 353 355 358 359 360 359 359 359 357 357 358 358 356 356 357 356 357 355 354 355 355 352 352 352 352 351 350 352 352 351 350 349 349 350 350 350 349 350 350 349 350 350 349 349 350 350 351 352 352 352 352 351 350
331 328 331 333 336 339 340 346 349 348 356 356 351 350 349 349 354 349 344 345 346 349 351 350 354 355 357 355 354 353 350 352 353 351 353 353 353 352 353 353 353 353 353 354 353 354 356 357 359 359 358 357 355 356 357 357 355 354 356 357 357 355 353 355 354 351 350 351 351 350 350 351 351 351 350 349 349 350 350 350 350 349 349 348 350 351 350 350 351 351 352 352 351 352 353 351 349
330 328 331 333 335 336 340 347 346 347 353 353 352 351 348 349 353 350 341 343 348 349 350 351 353 354 354 354 353 353 351 353 352 352 356 355 355 354 354 352 352 353 353 353 352 352 353 354 356 358 357 358 356 355 356 356 354 352 354 356 356 355 355 354 353 352 351 349 349 349 350 350 349 350 351 351 351 350 349 349 350 349 349 349 350 352 351 351 351 351 351 351 351 351 352 350 348
330 328 330 334 337 340 341 344 344 344 348 349 353 348 345 350 351 347 340 344 350 350 351 354 353 353 353 353 353 353 354 355 352 353 354 355 355 354 352 351 352 352 353 352 352 353 353 352 355 356 356 357 357 355 355 356 355 354 354 355 354 354 355 354 353 353 352 351 349 349 350 351 350 349 351 351 351 351 350 349 350 351 351 350 351 352 352 352 352 352 352 351 351 350 349 349 348
329 329 329 332 334 339 344 345 342 347 352 353 351 334 333 347 350 346 341 342 349 351 351 353 352 350 352 353 353 353 355 355 352 356 352 354 353 351 350 352 351 352 354 352 352 353 353 353 353 355 356 357 357 355 355 355 355 355 355 355 354 353 355 354 353 353 353 353 350 351 350 350 351 350 350 350 350 353 352 350 350 351 351 350 352 352 352 352 352 353 353 352 351 350 350 350 348
329 327 328 327 324 332 347 346 340 347 356 361 348 327 328 346 349 344 344 341 346 349 349 351 349 350 352 353 353 352 354 353 353 358 353 355 353 352 351 351 350 351 353 352 351 353 354 354 353 354 355 356 357 356 356 354 354 355 354 355 355 353 353 353 353 353 353 352 351 352 350 348 350 351 352 351 351 353 352 352 352 350 350 350 352 352 352 353 353 353 352 352 352 350 351 349 347
331 321 318 323 323 331 346 342 337 341 348 357 345 327 329 345 344 343 350 347 343 347 345 348 351 351 350 350 352 351 351 352 353 358 355 355 355 355 355 353 350 351 353 351 352 355 355 354 355 354 355 356 356 357 356 354 354 354 353 355 354 353 353 352 352 353 353 352 352 352 349 348 350 351 352 353 354 353 351 352 352 350 351 352 352 352 352 353 353 353 352 351 350 350 350 347 346
330 322 313 317 321 326 336 337 340 341 341 349 346 334 332 342 342 342 351 347 341 345 342 346 352 350 348 348 350 351 351 351 354 358 356 357 358 357 358 354 350 350 352 352 354 357 357 354 355 356 355 356 356 357 357 355 356 355 354 353 354 353 352 352 353 353 353 352 352 351 348 348 349 348 348 351 354 353 351 350 351 351 351 352 351 352 352 352 352 351 350 348 347 348 349 346 345
320 322 317 318 322 321 326 335 342 342 341 342 343 338 334 337 339 344 352 346 338 343 343 344 350 348 350 350 348 351 351 350 354 357 356 358 360 358 357 354 351 353 352 353 356 358 357 355 356 356 355 356 357 357 358 357 357 356 355 354 354 353 352 352 352 352 352 352 353 351 349 348 348 347 345 348 351 353 353 351 351 352 352 351 352 352 352 350 349 348 346 346 345 347 348 345 344
315 317 316 317 321 320 322 330 336 340 338 333 331 331 333 331 337 348 353 346 337 341 343 342 345 345 347 348 347 349 350 353 355 355 357 358 361 361 359 358 356 356 355 356 358 357 358 356 356 357 357 357 358 358 358 358 358 357 355 353 354 354 353 353 351 350 352 353 353 351 349 349 348 347 345 348 350 352 353 352 351 353 353 352 352 351 351 348 346 345 343 347 347 345 347 347 346
321 320 319 316 317 318 323 329 333 335 332 329 327 327 331 330 336 348 352 347 341 340 341 342 342 343 347 348 350 353 353 360 360 354 356 359 360 362 361 361 359 358 358 358 358 358 359 358 357 358 358 358 359 359 358 358 356 356 355 353 352 353 353 352 351 351 353 353 353 352 350 348 349 348 346 349 349 350 353 353 353 354 353 353 351 350 349 346 344 343 344 348 352 350 350 349 348
328 325 321 320 316 317 325 332 335 337 328 326 329 329 331 331 332 342 347 347 344 338 339 344 344 345 351 349 350 356 358 360 357 354 356 358 360 360 360 361 360 358 358 357 358 359 359 360 358 359 359 360 360 359 358 356 356 355 354 352 352 352 352 352 352 352 352 353 353 353 352 349 348 348 349 351 350 350 354 354 354 355 352 352 351 349 347 343 343 346 347 350 354 353 352 350 349
328 323 319 318 318 319 328 335 335 341 331 325 330 329 330 332 332 335 340 342 343 341 338 342 343 347 354 350 347 356 356 355 355 355 358 360 360 360 359 361 360 359 359 357 358 358 358 360 359 360 360 359 359 359 358 356 355 355 353 352 351 350 352 352 352 350 351 353 351 351 352 349 346 347 349 352 351 351 354 353 354 354 351 351 350 347 346 344 346 350 350 351 352 352 352 351 350
327 324 319 315 318 321 326 335 335 339 331 325 330 328 328 334 332 335 337 340 345 345 342 340 344 350 356 350 345 350 352 356 356 355 358 360 361 362 361 362 361 359 360 358 358 358 358 359 359 360 360 357 357 358 357 356 355 354 353 352 350 350 352 351 352 350 349 351 349 349 351 348 347 347 348 351 351 352 352 351 353 353 351 351 349 347 348 348 349 351 353 352 352 350 352 353 351
325 323 315 312 320 319 318 330 336 340 335 327 331 329 330 337 337 339 341 344 352 353 348 347 347 351 352 348 346 348 349 357 359 354 359 361 362 363 362 361 361 360 361 359 360 360 358 359 360 360 360 357 358 358 357 357 355 354 353 352 350 350 350 350 352 351 349 349 349 350 351 349 349 348 348 351 351 352 353 352 352 352 351 349 349 348 351 351 351 354 355 354 353 353 353 352 350
323 324 318 315 320 319 319 328 334 338 337 333 333 324 324 334 337 338 338 342 349 350 347 345 346 348 348 346 346 348 351 357 360 357 359 363 364 363 360 360 360 358 360 358 358 360 359 360 361 360 360 359 358 358 357 357 356 354 354 352 351 350 350 350 350 351 351 350 350 351 351 351 350 348 350 353 353 353 354 353 351 351 350 348 351 353 353 354 354 355 356 354 354 354 353 351 348
317 323 324 321 323 324 324 327 324 320 321 332 332 314 314 328 335 335 333 339 346 348 346 342 345 347 347 350 349 355 362 358 358 359 358 362 363 362 361 359 360 359 358 356 355 359 359 361 362 360 360 360 359 359 358 357 356 356 355 353 352 352 351 351 351 351 352 351 351 351 351 352 351 350 352 352 351 353 353 351 350 350 349 349 353 355 356 355 354 354 355 354 354 351 351 353 350
311 320 326 326 326 324 323 324 318 310 313 333 335 315 311 321 330 336 335 341 348 349 345 343 351 352 348 352 354 361 371 362 356 357 356 358 360 361 362 359 360 358 357 357 354 358 360 360 362 361 361 361 360 359 358 357 357 356 355 353 352 353 352 352 352 351 352 352 352 351 352 353 352 352 352 350 350 352 352 351 350 349 349 351 354 356 356 354 353 353 354 355 354 352 352 353 352
312 323 327 326 327 325 324 321 317 314 317 327 330 321 313 314 326 340 339 340 346 348 345 347 353 352 346 349 352 358 365 360 358 359 357 360 359 359 359 358 357 356 356 356 354 357 360 360 362 363 362 361 360 360 358 357 356 355 355 354 352 352 352 352 352 351 351 352 352 351 351 352 352 352 353 352 351 351 353 351 349 349 350 353 356 357 355 353 353 353 353 355 354 353 352 352 354
319 326 327 326 328 326 326 322 316 318 316 312 319 321 313 312 326 340 340 336 338 343 345 345 346 346 346 347 348 352 358 359 362 363 364 366 358 355 360 358 357 356 355 354 356 359 359 362 363 363 362 360 361 361 358 357 357 356 356 355 353 352 351 351 352 351 351 351 351 350 350 352 353 353 353 353 352 352 354 352 351 349 349 352 356 356 355 352 352 351 352 354 352 351 352 353 355
324 326 326 327 328 325 326 322 317 315 314 308 313 316 312 313 322 329 330 330 333 341 342 340 343 346 345 346 346 346 353 363 370 366 360 358 352 350 358 360 359 357 356 356 359 360 360 363 363 362 361 359 360 360 358 358 357 357 356 355 355 353 351 351 351 352 351 350 351 350 350 351 353 355 355 354 353 353 355 354 352 350 350 352 354 355 354 352 352 352 351 352 353 354 353 351 355
325 326 326 324 324 326 324 323 318 312 312 312 313 315 313 313 318 322 328 332 333 340 342 342 346 344 342 341 342 340 346 362 373 365 354 353 351 350 353 356 359 359 357 359 361 359 361 364 362 361 361 360 360 359 358 358 358 357 356 356 356 353 353 352 351 351 351 350 351 351 350 351 353 354 355 354 354 353 354 354 353 352 350 352 353 355 354 352 353 355 354 352 353 356 354 352 354
325 325 323 317 317 319 317 317 317 313 312 314 315 318 314 311 316 324 333 336 333 336 338 341 344 343 344 343 341 341 343 353 364 361 355 353 352 351 352 352 357 360 359 360 358 357 361 364 364 365 363 361 360 360 359 359 359 358 357 357 357 355 355 355 353 352 353 352 352 351 350 351 352 353 353 354 355 354 355 354 353 352 351 352 353 354 354 353 354 355 355 354 354 355 355 354 353
325 322 316 310 310 312 312 312 314 313 313 315 318 319 314 313 320 329 335 335 335 337 336 339 343 345 347 347 344 345 342 346 356 358 355 353 352 353 352 352 354 357 358 359 357 358 363 365 366 366 364 361 359 359 360 360 359 358 357 358 358 357 356 355 354 354 354 353 353 352 352 352 352 352 352 353 354 355 354 354 353 351 351 351 352 353 355 355 355 355 355 355 355 355 354 354 354
322 318 312 309 309 310 312 312 312 313 311 314 321 320 313 314 323 332 335 332 334 338 336 340 345 346 350 348 344 343 342 344 351 356 355 353 354 352 351 352 353 353 351 351 356 361 364 365 367 367 364 362 361 359 360 361 360 358 358 358 357 357 357 356 355 355 355 354 354 353 353 353 352 352 351 352 353 354 353 354 352 350 349 351 351 353 354 354 352 354 356 356 356 355 354 355 355
323 325 320 312 309 311 310 310 310 311 310 313 318 316 312 313 324 332 334 332 333 335 337 341 345 346 350 353 351 347 343 343 350 354 354 356 356 352 350 349 349 352 349 345 351 360 363 364 366 366 365 364 363 361 361 360 359 357 357 356 355 356 358 358 357 356 355 354 353 352 352 352 352 352 351 350 351 352 352 352 352 350 349 349 350 352 354 353 350 350 355 356 356 354 354 355 355
324 327 322 313 314 315 310 309 311 309 310 312 312 315 317 323 331 336 332 333 332 332 336 341 345 346 349 353 355 352 346 340 345 349 350 356 358 353 351 348 347 350 348 345 349 355 359 363 364 365 365 364 362 361 360 358 356 355 355 354 355 357 359 359 359 357 355 354 352 350 349 351 352 351 351 350 350 351 350 352 352 351 349 349 349 349 351 352 350 349 353 355 355 354 353 353 354
322 320 315 318 325 321 310 308 311 310 309 313 314 316 323 328 332 333 333 334 333 332 334 338 346 347 345 347 349 352 351 346 342 343 347 356 358 355 353 351 347 347 347 347 349 353 356 359 363 366 364 360 356 355 356 357 357 358 357 356 357 358 359 359 359 357 356 355 354 351 350 351 351 351 351 350 349 349 349 350 352 351 350 348 348 349 351 352 351 351 353 353 353 354 352 352 353
320 315 317 324 327 322 316 310 311 311 311 313 313 314 317 322 327 332 333 334 333 333 334 337 344 343 343 346 349 352 354 351 346 343 345 351 355 356 356 356 352 345 346 348 348 350 352 354 359 363 359 353 350 350 353 356 357 357 358 358 358 358 357 358 359 358 357 357 355 353 351 351 350 349 349 349 348 350 349 350 351 351 350 349 348 348 350 351 352 353 354 354 353 354 355 354 354
324 320 325 323 315 313 314 311 311 312 313 315 314 313 315 318 324 330 333 333 335 338 340 340 338 342 347 346 345 346 348 355 351 343 345 347 348 354 356 357 358 349 346 347 346 348 350 352 358 357 351 350 350 351 354 356 357 357 357 358 357 357 355 357 359 358 357 356 356 355 353 351 350 348 348 348 349 349 349 349 350 351 351 350 348 348 349 350 351 352 355 357 356 355 357 356 355
326 324 327 325 316 313 313 312 312 311 313 316 317 318 316 319 326 332 334 335 336 338 343 345 343 344 346 347 352 352 352 361 359 343 342 344 342 350 354 355 359 357 351 347 345 347 351 355 360 356 352 354 356 356 355 355 357 356 356 356 357 357 355 357 358 357 356 356 355 354 353 352 350 349 350 351 349 348 349 349 349 349 350 350 349 348 348 350 351 352 355 358 357 356 357 357 357
322 318 318 319 319 318 316 314 312 310 311 314 321 326 324 327 335 338 335 336 337 338 343 347 347 347 345 349 361 363 356 360 358 345 342 343 343 349 352 356 359 359 358 353 347 348 352 355 357 356 356 357 357 357 356 355 356 356 356 357 357 356 357 358 359 357 356 355 355 354 354 353 352 351 353 353 350 348 348 350 350 350 350 350 350 349 349 350 352 353 355 355 355 355 357 358 358
324 319 318 318 318 316 313 313 313 311 311 311 320 327 327 332 339 339 334 336 337 341 344 344 347 349 347 347 359 367 365 360 352 346 342 344 346 347 351 357 358 356 357 358 355 354 354 354 354 354 355 355 354 355 357 356 354 354 356 357 356 356 357 358 358 357 357 356 356 355 354 354 353 353 353 354 353 352 349 349 351 351 349 350 350 350 350 350 351 352 353 354 354 356 357 358 358
Wind_Speed
3 2 2 3 4 4 0 1 0 1 1 2 3 2 2 4 1 2 3 4 2 3 6 7 9 9 7 9 10 11 9 7 6 3 4 9 19 22 23 26 25 23 22 22 22 21 20 20 19 19 20 21 21 19 20 20 20 18 17 17 18 18 17 17 17 19 19 18 19 20 20 19 19 20 21 20 18 18 18 16 15 15 14 14 14 14 15 15 16 16 17 18 19 20 20 20 20
4 3 3 3 3 3 1 2 1 1 1 4 3 3 3 6 2 3 2 2 2 6 7 7 10 11 11 11 9 10 10 9 9 7 9 17 21 22 25 25 25 24 22 23 22 20 20 21 20 19 19 20 21 20 20 19 19 19 18 17 17 17 17 17 16 17 19 18 19 20 20 19 19 19 20 18 17 18 17 16 15 15 15 14 14 15 15 15 15 15 17 17 18 19 20 20 20
4 2 4 2 3 2 1 1 1 2 2 3 0 2 2 4 2 1 1 1 5 9 8 7 10 7 7 10 8 8 7 8 12 11 11 19 17 21 26 24 25 24 22 22 20 19 20 21 20 20 19 19 19 19 19 19 19 19 19 17 16 16 16 17 16 16 17 18 19 20 20 19 19 18 18 16 16 17 16 15 15 15 14 14 14 14 14 15 15 15 16 17 18 19 20 20 19
5 4 4 2 3 2 2 1 1 1 2 1 1 1 3 2 2 3 3 3 6 7 7 8 7 4 4 11 8 8 8 7 12 12 10 15 17 24 27 25 25 23 23 22 20 19 20 22 21 20 20 19 19 19 18 17 19 19 19 18 16 16 15 16 16 15 16 18 18 19 20 19 18 18 17 15 15 15 15 15 14 15 14 14 13 13 12 13 13 14 14 15 17 18 19 19 18
5 6 3 3 2 2 2 1 1 1 2 1 1 3 6 8 8 4 5 6 5 5 6 8 5 3 7 8 5 5 7 7 12 14 11 17 23 27 27 25 24 23 23 22 21 18 20 22 20 19 19 19 19 18 17 17 18 19 18 18 17 17 15 15 16 16 16 17 19 19 19 17 17 17 16 15 14 14 14 14 14 14 14 13 12 12 11 11 12 12 12 14 15 16 18 18 16
7 5 2 2 2 1 2 2 2 2 3 3 1 3 4 6 9 9 2 5 5 7 8 7 6 7 9 6 6 5 6 7 10 14 15 21 26 27 26 25 24 24 24 24 21 18 19 20 19 19 18 19 18 17 18 19 19 19 19 18 18 18 16 16 16 17 16 16 18 20 18 16 15 16 16 15 14 13 13 13 13 13 12 12 11 10 10 11 11 10 10 12 14 15 16 17 15
11 4 1 1 3 2 2 3 3 2 2 3 2 2 1 1 6 9 6 3 5 10 7 6 6 7 7 6 7 5 7 8 8 14 19 24 26 25 24 24 24 24 23 23 22 20 20 20 19 17 17 17 18 18 18 19 19 19 20 19 19 19 18 16 16 17 17 17 17 19 18 16 14 14 14 14 13 12 12 12 11 11 10 10 9 9 10 10 11 11 11 12 13 13 15 15 15
14 4 1 2 3 2 2 2 1 1 1 1 1 0 1 1 3 7 7 6 7 6 5 6 4 6 7 6 5 4 8 9 12 19 23 25 26 24 22 23 24 23 21 22 22 21 21 22 20 17 16 15 16 17 17 18 17 19 21 19 19 19 18 16 17 17 18 18 17 17 17 16 14 13 13 12 12 11 10 10 10 9 9 9 8 8 9 9 10 10 11 12 11 11 13 13 13
11 3 1 2 1 1 2 1 1 1 1 1 0 2 3 4 5 7 7 10 9 5 5 4 2 6 8 8 7 7 8 11 18 22 23 24 24 23 21 21 23 23 21 22 22 22 19 20 21 18 16 14 14 14 14 15 15 16 18 17 17 18 17 16 17 17 18 18 18 17 16 15 14 12 11 11 10 10 9 8 9 9 8 8 7 7 8 9 10 10 10 10 9 8 11 12 11
6 4 3 2 0 2 2 1 1 2 1 1 1 2 4 5 5 5 7 8 4 5 3 3 4 7 8 9 8 7 11 16 21 21 21 22 22 22 21 20 22 23 22 22 23 22 19 19 20 20 18 16 15 13 12 13 13 14 14 15 15 17 17 16 16 17 17 17 18 18 17 17 16 14 13 12 11 11 10 9 9 10 9 8 7 7 8 8 9 10 8 8 7 5 7 10 8
4 4 4 2 2 2 3 2 2 2 2 2 2 1 4 7 4 5 7 5 2 2 4 6 6 7 8 9 6 9 15 19 20 20 21 20 20 22 21 20 21 22 22 22 22 22 21 19 19 19 19 18 17 15 15 14 14 14 14 16 16 17 18 17 17 18 17 16 16 16 18 19 19 18 16 15 14 13 12 12 11 11 11 10 8 7 8 8 8 8 7 7 7 4 5 7 6
5 2 3 3 2 4 4 4 1 3 3 3 3 3 6 6 3 3 5 2 4 4 5 6 1 3 7 8 5 10 16 18 19 20 20 18 19 23 23 20 21 21 22 22 22 22 22 21 19 18 18 18 17 17 17 16 16 15 16 17 18 17 17 17 16 17 16 16 16 15 18 20 20 21 20 19 17 16 15 15 14 13 13 12 11 9 9 9 9 9 7 6 5 4 4 6 5
4 2 0 3 4 6 5 6 2 4 3 2 3 4 8 6 3 1 2 2 2 2 4 3 3 3 6 6 6 9 13 16 19 19 18 17 18 23 24 20 22 22 21 21 21 22 22 21 19 18 17 17 16 16 16 16 16 16 16 16 18 17 16 16 16 16 15 15 17 16 18 19 20 21 21 21 19 19 18 17 16 16 16 14 12 11 11 11 11 10 9 6 5 5 4 6 6
3 2 3 4 4 5 5 6 4 3 2 4 4 5 7 5 5 4 2 5 5 2 3 2 1 5 6 6 5 7 10 15 18 17 17 17 16 21 25 21 21 22 21 21 21 21 20 19 19 18 18 16 15 15 15 15 15 15 16 16 16 16 16 15 15 16 14 13 16 17 18 18 19 18 19 20 19 20 19 18 18 18 18 16 15 13 12 13 12 11 9 7 7 6 4 5 6
4 3 4 3 5 5 5 4 3 2 2 5 4 5 6 6 7 6 5 7 1 4 2 3 3 3 5 6 4 6 11 16 17 16 17 17 16 18 24 23 21 21 20 20 20 20 20 19 18 18 17 16 15 15 15 14 15 15 15 15 15 15 15 14 14 14 13 13 13 16 17 17 18 18 18 18 19 21 20 18 18 18 18 16 15 13 13 14 13 12 10 9 8 6 5 5 5
4 4 4 3 7 6 7 5 5 4 3 5 5 4 4 5 6 3 6 8 4 2 2 3 4 1 4 5 6 10 14 17 16 16 16 17 16 16 20 22 21 20 19 20 20 19 20 19 17 16 17 16 15 14 15 15 14 14 14 14 14 14 13 12 12 12 12 12 12 14 16 16 18 18 18 20 21 22 21 20 19 19 18 16 14 13 13 14 13 12 10 9 7 6 5 5 5
4 5 3 5 7 7 7 7 6 3 5 5 5 5 3 5 5 4 8 7 6 5 5 3 5 4 2 5 10 13 15 16 16 16 16 16 15 15 16 18 18 17 17 18 18 19 19 19 17 16 17 17 16 14 15 14 14 14 12 13 14 13 13 12 11 11 11 12 12 13 15 16 18 19 20 22 22 21 21 21 20 19 18 17 14 13 14 14 13 11 10 9 7 6 6 5 4
4 2 3 6 6 7 7 7 7 5 7 5 4 4 3 6 6 7 7 4 7 7 6 5 6 6 3 5 12 12 15 16 16 17 16 15 14 14 15 16 16 14 15 15 16 18 18 18 17 17 17 16 16 15 13 12 13 12 11 13 13 13 13 12 12 11 12 13 13 14 15 17 19 20 21 23 23 22 23 22 20 18 18 18 16 15 15 14 13 12 11 10 8 7 7 5 4
5 4 5 5 6 8 7 8 7 6 6 5 4 3 2 5 6 7 5 4 6 5 6 7 6 5 7 6 14 12 14 15 16 17 15 15 14 13 14 15 15 14 15 14 15 16 16 17 16 17 17 16 15 15 13 11 12 12 12 13 13 12 13 12 11 11 12 14 14 15 16 16 18 20 20 21 22 22 23 22 20 20 20 20 17 16 16 15 13 12 11 10 9 9 8 6 5
4 3 5 5 8 10 9 7 6 5 5 4 4 3 3 4 5 6 6 5 5 4 5 6 6 3 8 8 15 14 15 16 15 16 15 14 14 14 13 14 15 15 15 14 15 15 15 16 16 17 17 16 15 14 14 12 12 13 13 12 12 12 12 12 12 12 13 13 15 15 15 16 17 18 18 19 19 20 22 21 20 20 20 19 18 17 17 16 15 13 11 10 8 9 9 6 5
2 4 5 5 8 10 10 8 6 6 5 4 3 2 3 2 2 7 8 4 3 5 6 7 8 8 11 11 14 15 14 15 15 15 15 14 13 13 12 13 13 15 15 14 15 15 15 16 16 16 16 16 15 13 14 14 13 13 13 12 12 13 13 13 13 14 13 13 15 16 16 16 16 17 18 18 18 18 20 21 20 19 18 18 18 17 17 17 15 14 12 11 9 9 9 8 7
2 6 6 5 8 9 10 9 3 3 4 3 4 3 3 1 2 5 8 4 3 6 8 10 11 10 11 11 12 13 12 13 14 14 14 13 13 13 13 13 12 15 16 14 15 15 15 16 16 16 16 15 14 12 13 13 13 13 14 13 13 14 14 14 15 14 14 14 16 18 19 17 15 15 17 18 17 17 19 21 21 20 19 18 17 17 17 16 16 15 13 12 10 9 9 9 8
2 6 5 5 9 9 10 8 0 3 5 5 6 3 1 1 1 2 3 5 7 9 12 13 13 11 9 9 9 11 12 13 13 12 12 13 13 12 13 14 12 15 17 14 14 15 15 16 15 15 15 15 13 12 12 12 12 11 12 12 13 15 14 15 16 16 15 16 15 16 17 17 15 15 17 18 18 18 18 20 20 20 19 17 17 17 16 16 16 15 14 14 11 10 10 10 9
6 5 4 5 8 9 9 7 3 5 7 5 3 2 4 5 3 1 0 7 12 10 12 13 13 12 11 10 10 11 11 12 12 12 12 12 12 11 10 12 12 12 15 16 14 14 15 15 15 14 14 14 12 11 11 10 10 9 9 9 10 12 13 14 16 17 16 16 14 15 16 16 16 16 17 19 18 17 17 17 19 18 17 16 16 16 15 16 16 15 14 13 11 11 11 10 10
6 5 3 6 7 10 7 5 5 3 4 2 3 3 5 5 5 2 2 6 13 11 11 12 12 12 11 10 9 10 10 10 11 13 12 10 9 9 6 9 12 9 11 15 16 15 15 15 14 14 13 13 12 11 10 9 9 8 8 8 8 9 10 11 12 15 17 17 16 18 20 19 18 18 19 20 17 16 16 17 18 17 16 15 15 15 15 15 15 15 13 12 12 12 11 11 11
6 4 3 6 7 8 5 3 5 1 2 3 3 5 5 4 5 3 1 3 9 13 12 10 9 9 9 9 8 8 8 10 9 9 9 4 8 14 12 14 12 6 7 9 14 18 17 15 14 13 13 13 12 12 10 9 10 9 9 8 8 8 8 9 9 12 17 18 18 19 21 20 19 18 19 19 16 15 18 17 17 18 17 17 16 14 15 15 14 13 12 13 12 12 12 10 11
4 3 2 3 4 5 4 3 3 1 2 4 3 4 5 5 3 3 3 5 9 13 12 9 7 7 7 9 9 7 7 9 9 8 9 10 16 21 16 15 12 8 10 8 12 16 17 16 14 13 14 13 13 12 11 11 11 10 10 9 8 7 8 9 8 10 14 18 20 19 18 18 18 18 18 18 16 16 17 17 17 18 17 17 17 15 15 16 14 13 13 13 13 13 12 11 12
4 4 4 4 4 4 3 1 2 1 1 4 2 1 2 2 2 4 1 7 13 9 9 10 6 6 7 7 7 7 7 6 8 10 12 13 15 17 15 15 14 12 12 10 12 13 14 16 15 14 14 13 12 12 11 11 11 10 10 9 8 8 8 10 10 11 12 14 19 19 16 16 15 17 18 18 18 17 16 16 16 17 16 16 16 16 16 17 14 13 12 12 13 13 13 13 12
7 4 7 6 7 4 2 1 2 1 1 5 3 3 1 4 4 5 5 9 17 8 7 12 7 7 7 6 5 6 4 3 6 13 15 15 16 16 18 17 17 17 14 13 14 10 10 13 15 15 14 13 12 11 11 11 10 9 9 8 7 8 8 10 11 12 12 12 16 18 18 18 14 15 17 16 17 16 15 16 15 15 16 16 16 15 15 16 13 12 12 13 14 12 12 12 12
9 8 8 5 7 7 5 2 2 3 2 4 3 2 2 4 6 7 5 6 17 12 8 11 8 5 6 7 5 6 3 3 5 19 21 16 17 18 19 18 17 18 15 15 15 9 8 11 13 13 12 12 11 11 11 10 10 9 9 8 7 8 8 9 9 11 12 12 15 17 19 20 16 16 18 17 16 15 15 15 14 16 17 17 16 15 15 15 13 12 13 13 13 12 12 12 12
8 9 7 5 3 5 7 6 4 3 4 5 3 4 3 4 7 6 2 2 9 12 9 10 7 5 6 5 6 7 5 7 6 23 26 19 19 19 19 18 16 16 15 15 17 11 8 10 12 12 13 12 10 9 10 9 9 9 9 9 8 8 8 9 9 11 11 11 15 17 19 21 18 18 19 18 17 17 17 16 14 15 15 16 15 15 15 14 13 12 13 12 12 12 13 13 13
7 5 5 6 1 7 7 6 4 1 2 6 4 4 3 3 7 8 5 6 5 10 7 8 10 7 7 6 7 8 6 9 6 19 23 17 16 17 18 20 18 17 16 15 17 11 8 10 10 12 13 11 10 9 9 8 7 8 8 9 8 9 8 8 9 10 10 12 15 17 19 20 19 19 19 18 17 16 18 17 16 17 16 16 15 15 15 13 12 12 13 14 12 13 12 12 12
6 4 5 6 0 8 7 5 6 1 1 5 6 3 4 1 7 9 9 7 7 10 6 7 11 9 9 9 8 8 7 9 6 11 16 14 14 16 17 20 19 20 20 18 16 11 11 12 10 12 12 10 11 9 9 9 7 7 6 7 7 8 8 8 9 10 11 12 15 16 18 19 19 20 18 18 16 14 16 16 15 16 16 17 15 14 15 13 13 13 14 15 13 11 10 11 11
2 2 5 4 2 4 6 5 5 3 4 4 5 6 6 6 8 10 12 8 7 8 9 8 10 8 8 9 9 9 8 8 7 7 11 13 15 17 18 20 20 20 21 19 17 13 12 13 11 12 11 11 12 10 10 8 7 7 6 7 7 7 8 8 10 11 12 13 15 17 19 20 19 18 18 17 16 13 12 14 14 14 14 16 15 14 14 13 14 14 13 13 11 9 8 9 9
6 6 6 4 4 3 2 6 7 7 4 4 8 9 7 7 3 11 13 8 6 5 11 9 8 9 9 9 8 7 7 5 6 8 13 15 16 17 18 20 20 18 18 18 17 14 12 12 11 12 11 12 12 11 11 9 7 7 6 7 7 7 8 8 9 11 12 13 14 17 20 21 19 18 18 17 17 16 12 12 14 14 15 15 14 15 15 15 15 14 13 9 8 8 8 7 5
8 8 8 7 5 6 5 3 5 3 2 6 9 8 7 9 3 11 12 8 5 3 8 9 6 6 7 7 5 8 8 4 1 11 18 18 18 18 18 19 19 18 17 17 17 15 13 12 11 12 12 12 12 12 12 10 10 9 7 8 7 7 8 8 9 11 12 13 13 16 19 22 18 17 19 16 16 18 14 12 13 15 16 14 15 16 15 15 14 13 14 10 6 6 5 5 3
7 8 8 9 8 8 7 2 6 4 3 6 7 8 8 9 6 7 12 10 7 3 4 7 8 8 6 5 5 9 10 8 10 18 19 20 19 19 18 18 19 18 17 18 17 16 15 14 13 13 13 14 13 13 13 11 11 11 9 10 8 8 8 9 11 12 12 12 14 16 17 20 19 17 17 15 17 18 14 13 13 15 17 15 15 15 14 15 13 10 11 10 7 5 3 3 4
6 9 8 9 7 8 6 6 8 5 2 5 5 8 8 7 9 5 7 10 9 4 2 5 5 8 7 5 6 8 9 12 15 13 12 18 19 20 21 20 20 19 18 18 18 18 17 15 15 14 14 17 16 15 14 12 12 11 10 10 8 8 9 9 11 13 13 13 15 17 17 19 19 18 17 16 18 18 16 15 15 15 17 15 15 15 13 14 13 9 8 9 7 6 4 4 5
8 8 8 8 7 10 7 6 7 5 2 5 3 6 8 7 7 7 4 0 4 5 2 5 4 4 7 6 6 9 9 12 14 10 11 17 20 20 21 20 21 20 19 19 19 19 18 17 17 15 15 18 18 17 16 14 12 11 9 9 8 8 9 9 9 11 13 15 16 17 18 19 19 19 18 18 19 18 16 16 15 16 16 16 15 14 12 13 14 10 8 9 7 5 5 5 7
7 7 7 8 9 10 4 5 6 7 5 3 4 5 9 7 2 4 7 7 7 5 3 1 4 4 4 3 4 9 10 11 14 13 12 14 18 20 19 20 21 20 19 19 20 19 19 18 18 18 17 18 19 18 17 14 11 10 9 8 7 6 8 9 9 10 12 15 17 16 17 18 18 19 19 19 20 18 16 16 16 16 17 17 14 13 13 13 14 11 8 9 7 6 5 5 9
8 9 9 9 11 13 7 1 5 8 7 3 1 5 8 1 5 4 3 5 5 5 5 4 3 3 2 3 2 4 6 8 14 16 14 10 15 21 20 21 21 21 21 20 21 20 19 19 20 22 19 18 19 17 14 12 11 10 9 8 7 6 8 10 10 12 13 16 18 17 17 18 18 19 19 19 20 18 17 16 17 17 17 17 14 13 14 13 13 11 9 9 9 8 4 2 6
8 10 11 11 13 15 11 7 5 4 5 5 3 5 5 4 9 2 2 5 6 6 4 1 0 0 1 1 5 4 3 6 12 17 15 10 14 21 22 23 23 23 22 22 22 22 21 20 21 23 21 20 20 17 14 14 13 12 11 10 10 9 10 12 12 13 14 16 17 17 17 18 18 18 19 21 20 19 18 18 18 17 17 17 15 14 14 13 12 11 10 10 9 9 6 2 4
8 6 10 13 11 8 9 8 8 7 3 6 6 5 4 2 7 5 3 6 7 4 2 2 3 4 3 3 3 5 3 6 9 14 16 14 16 19 19 23 25 24 24 24 24 23 23 23 22 24 23 22 22 20 20 19 16 15 14 12 12 11 11 12 13 14 15 16 17 17 18 18 18 18 19 20 20 20 19 18 19 17 16 17 15 14 14 13 12 12 11 10 9 9 7 5 3
8 4 8 13 8 4 9 10 8 8 6 6 9 5 5 2 4 4 2 4 7 5 5 4 4 5 6 5 4 4 6 6 7 8 11 11 12 16 20 22 23 24 25 25 25 25 24 24 24 25 25 24 22 22 24 22 20 18 16 13 12 13 12 12 13 13 15 16 16 17 18 18 20 19 19 20 20 19 19 19 19 18 16 16 15 14 14 13 12 13 12 11 11 11 9 6 4
10 5 7 10 10 9 11 10 7 8 8 5 5 5 4 2 2 3 3 3 4 7 7 6 5 3 3 6 6 4 6 5 3 4 5 3 2 10 16 22 23 24 26 25 25 25 25 25 26 26 28 27 24 23 25 24 22 20 18 15 12 12 11 12 13 12 14 16 16 17 18 18 20 19 19 21 20 20 20 20 19 18 17 16 15 13 13 14 13 14 15 13 12 11 10 8 6
9 8 9 6 9 10 9 8 7 8 6 7 8 7 5 1 4 5 3 3 2 1 3 2 3 4 1 2 4 5 6 7 3 5 8 6 6 13 18 18 24 25 25 24 25 27 25 24 27 28 29 30 26 25 27 25 23 22 19 16 13 12 10 11 14 13 13 15 15 17 18 18 19 18 18 20 21 20 20 20 19 18 17 17 15 13 14 15 14 14 16 15 13 10 10 10 7
9 7 8 8 8 7 7 7 6 6 5 7 9 11 11 4 2 1 2 3 2 3 1 2 5 7 4 1 2 4 5 7 5 4 8 9 9 7 21 20 19 24 25 22 24 28 25 22 26 28 28 30 29 28 28 26 24 22 19 16 14 13 10 9 13 14 14 14 14 16 18 18 18 18 18 19 20 20 20 19 19 18 17 17 18 15 14 15 14 13 15 15 13 11 10 10 8
8 6 6 7 6 5 5 5 5 5 5 7 8 11 11 3 1 3 6 7 3 3 1 3 7 6 5 3 2 1 3 7 8 6 6 7 10 8 15 22 16 13 19 23 25 26 22 21 23 24 25 29 30 29 27 26 25 21 19 16 14 14 11 9 12 13 14 14 14 15 16 17 17 18 19 20 20 20 20 20 19 18 18 18 19 17 14 15 14 12 14 15 14 13 12 10 9
7 6 6 6 4 3 3 4 5 4 6 8 5 5 7 3 3 5 8 8 4 4 1 1 7 6 4 4 5 4 1 6 10 9 8 7 8 11 9 14 19 15 6 11 18 19 17 20 22 21 24 28 28 28 27 25 24 22 18 16 15 15 13 11 12 12 13 14 14 15 16 16 17 17 18 19 20 20 20 21 20 20 19 18 19 18 15 17 17 14 14 15 14 14 14 12 10
9 7 5 5 4 4 5 5 5 5 6 7 4 5 5 2 4 4 8 7 1 2 1 2 9 7 4 4 5 6 7 1 8 8 9 8 7 11 12 7 5 12 12 8 2 12 13 16 20 20 22 25 25 27 27 23 23 22 19 16 15 16 15 13 12 12 12 13 13 14 15 16 16 17 19 19 19 20 20 21 21 20 20 19 19 19 18 18 19 18 15 13 14 15 14 13 11
8 7 5 6 5 4 6 5 6 6 5 5 2 2 4 3 3 2 6 4 2 3 6 7 8 6 4 4 4 5 7 2 5 5 7 9 11 13 14 17 15 8 5 3 6 9 11 13 19 21 22 23 22 24 23 18 16 15 14 12 13 14 14 13 12 13 14 13 13 13 14 16 16 17 18 19 19 20 20 21 22 20 20 21 21 20 19 19 19 20 17 14 14 15 15 13 12
6 6 7 6 4 3 5 7 9 8 6 4 3 3 4 2 5 4 3 1 1 5 7 9 9 6 5 3 4 5 6 3 2 4 6 7 12 14 13 18 20 14 12 10 11 9 11 16 19 20 22 21 18 16 16 14 13 14 14 13 13 13 14 14 14 16 16 15 16 15 15 16 17 17 18 19 20 21 21 21 21 21 20 22 23 22 21 20 19 20 19 17 16 16 16 15 14
4 5 6 5 7 7 6 7 8 8 7 4 3 5 5 3 4 1 4 3 3 6 4 7 11 8 6 5 3 4 6 7 5 3 6 5 10 13 13 16 22 19 13 12 12 11 13 18 19 20 18 16 14 11 12 16 19 22 21 19 17 16 16 16 16 17 16 15 17 17 16 15 15 17 18 18 20 22 23 22 21 22 21 21 22 22 22 21 19 20 20 20 18 16 16 18 16
5 6 4 5 7 8 5 4 6 6 6 3 4 2 1 1 3 2 2 4 3 4 4 5 10 8 7 6 1 2 3 6 5 4 5 4 7 12 13 16 25 29 22 16 15 17 17 16 19 19 14 12 13 12 15 20 22 23 24 21 21 21 19 17 16 16 17 18 19 19 19 16 14 16 18 19 20 20 22 23 23 23 23 22 22 22 22 21 21 22 20 20 21 17 16 18 17
7 8 8 6 6 5 3 4 4 6 4 1 5 6 1 2 1 2 2 3 7 9 8 8 8 6 5 7 5 2 4 6 6 2 2 3 4 8 11 14 23 32 32 25 21 23 21 16 15 14 11 13 17 17 19 21 21 22 23 22 22 22 20 19 19 20 21 21 21 20 21 20 18 19 21 21 21 20 21 23 24 23 23 23 23 23 22 22 23 24 21 19 21 19 17 18 18
8 8 7 6 5 5 4 4 4 5 3 1 4 5 1 2 3 5 5 4 6 8 7 7 9 7 3 6 6 5 7 6 8 7 2 2 4 6 10 10 16 26 33 32 23 20 19 16 12 13 14 18 22 22 23 21 20 20 20 20 20 21 21 19 20 22 23 23 23 22 22 22 22 23 23 21 22 22 21 23 24 23 24 24 25 24 23 23 23 24 23 20 20 20 19 18 18
8 7 7 6 5 5 5 6 5 4 4 2 0 2 2 4 5 6 4 2 2 4 4 3 4 4 1 6 7 5 8 4 9 11 5 5 4 6 10 10 13 18 24 29 27 23 20 17 13 15 17 20 21 20 21 22 22 20 20 20 19 20 19 18 18 21 23 23 23 22 22 22 22 24 24 21 21 23 23 24 24 24 24 25 26 26 25 24 24 24 25 22 21 22 21 19 19
7 5 6 5 5 5 5 6 6 5 6 3 3 2 2 3 3 2 1 2 1 3 3 2 3 3 1 6 10 6 8 5 12 16 9 6 4 7 10 10 12 13 14 19 23 24 21 17 14 16 16 16 15 16 18 21 22 22 22 21 20 18 18 18 19 21 23 24 23 21 20 20 21 25 27 24 22 23 23 24 25 26 26 25 27 29 27 25 25 25 25 23 22 24 25 22 20
Wind_Direction
316 283 281 303 281 281 209 232 70 109 276 58 35 51 39 340 12 120 101 62 15 125 93 83 73 67 74 77 82 70 54 35 37 85 105 133 143 137 130 133 135 133 135 139 140 139 141 140 141 145 149 151 150 151 149 148 147 146 150 151 149 146 147 146 148 155 154 142 136 137 139 141 140 140 140 137 137 136 134 135 132 128 124 123 122 121 118 115 112 111 110 106 103 100 97 95 93
262 246 262 305 309 309 19 273 343 65 61 61 9 329 348 323 323 79 87 133 113 110 100 93 88 82 83 84 85 73 58 52 73 87 110 140 140 129 131 135 134 134 137 138 137 136 141 143 144 146 150 153 153 154 152 151 152 150 151 153 152 149 148 148 147 153 158 151 143 142 142 144 142 140 140 139 139 141 141 140 136 132 129 127 126 121 118 117 115 113 112 108 106 104 100 97 92
241 251 239 294 338 289 300 271 14 22 64 76 11 287 307 316 298 45 350 108 100 106 110 95 80 73 83 86 67 72 82 73 98 102 122 144 137 130 134 132 133 135 135 136 137 137 141 146 148 149 151 155 156 156 155 156 157 154 154 154 152 151 150 149 148 151 158 158 151 147 147 147 145 142 142 142 144 145 144 142 138 137 135 131 129 123 120 120 117 115 116 113 110 107 103 97 93
240 270 215 159 351 293 305 5 43 4 85 95 106 334 300 317 290 222 199 125 105 119 116 88 62 2 56 92 84 83 100 96 111 115 134 144 134 132 132 131 134 133 133 137 139 141 143 146 150 153 156 157 159 159 158 159 160 158 157 156 154 154 153 151 151 150 157 162 157 151 150 149 147 144 143 143 145 146 143 142 140 141 139 134 131 126 123 122 120 117 119 119 112 108 104 97 94
248 262 214 128 30 319 336 6 48 10 52 30 69 28 341 352 341 280 170 126 125 125 99 92 88 70 66 81 95 101 111 116 127 129 133 134 130 130 131 132 133 134 135 137 139 143 147 148 148 152 158 159 160 160 160 162 163 163 162 160 158 159 157 156 154 152 157 163 162 156 151 149 148 145 144 143 143 144 142 140 141 143 140 136 134 130 129 127 124 120 122 123 119 112 104 98 96
241 231 240 89 54 335 351 8 37 28 29 2 17 50 7 357 323 299 75 109 123 74 57 90 117 107 86 71 81 106 130 128 135 131 129 131 130 129 132 134 133 134 135 137 138 140 148 150 148 149 154 158 160 160 162 166 167 168 167 165 164 163 161 159 158 156 157 161 166 162 155 150 149 148 146 145 145 146 143 141 142 145 143 142 143 144 142 139 135 132 133 131 128 117 105 101 101
233 197 166 59 36 22 32 11 18 31 37 357 3 78 123 200 277 304 6 47 74 58 54 94 121 111 93 92 83 90 120 130 139 128 130 132 130 130 134 136 133 134 135 138 137 140 150 153 152 151 152 153 156 161 164 167 170 170 170 169 168 166 163 162 162 162 161 161 166 167 163 156 152 151 148 147 148 150 147 143 145 150 150 150 153 158 155 149 144 142 141 137 137 121 105 102 101
231 220 109 75 30 47 57 345 331 1 29 339 350 40 254 144 302 323 358 22 34 46 66 77 104 103 87 99 99 117 128 134 133 127 132 132 131 135 136 135 133 134 136 136 138 143 149 153 155 155 156 154 155 160 162 164 168 169 169 170 169 168 166 166 167 167 166 163 161 165 169 167 163 158 154 152 152 153 154 151 152 157 159 158 160 166 162 153 147 147 147 141 144 128 107 100 97
215 205 110 78 22 97 96 284 289 259 241 224 79 339 347 30 11 342 355 34 23 347 49 77 129 102 104 103 105 144 144 129 127 129 134 133 134 136 135 136 134 134 135 136 139 142 146 152 155 157 158 158 157 159 160 161 165 166 167 171 172 170 170 172 170 168 167 166 161 161 164 169 173 171 165 161 160 160 161 163 163 165 167 166 165 172 172 161 154 156 156 144 146 141 110 97 94
202 196 168 97 122 135 117 194 242 202 179 170 136 346 16 37 22 4 4 36 15 295 22 87 94 92 111 105 103 133 134 131 131 132 135 136 137 134 134 136 135 135 135 136 138 141 145 149 154 156 157 158 157 158 158 161 161 163 167 171 174 174 177 176 172 171 168 167 164 161 160 166 173 176 175 173 174 175 174 175 175 178 181 182 176 180 185 174 167 167 164 146 148 161 118 97 95
238 207 180 157 163 126 90 135 202 139 130 173 136 48 47 41 0 22 28 22 337 309 35 41 68 99 106 97 102 122 131 137 136 135 137 141 138 133 133 134 134 136 136 138 138 141 146 149 153 156 157 158 158 158 159 163 163 167 172 175 176 177 181 179 176 176 170 166 162 161 167 171 173 174 181 186 187 188 190 189 186 188 192 195 192 193 195 186 184 179 171 155 156 180 137 111 105
261 250 177 226 139 110 92 114 165 131 138 168 123 103 85 65 314 17 54 34 348 6 52 47 65 155 104 100 113 128 138 141 137 138 140 141 136 130 130 133 135 136 138 138 138 141 145 148 154 157 159 160 160 162 164 167 169 174 177 179 179 178 183 182 180 178 173 168 159 162 173 176 180 179 182 190 193 194 196 196 193 193 196 198 199 206 209 201 203 201 192 176 173 198 168 134 128
278 321 18 303 83 111 118 115 159 166 141 130 124 111 101 120 206 131 135 149 44 14 66 70 208 164 102 112 129 137 142 140 138 140 142 142 136 130 130 135 137 138 140 139 138 141 144 148 153 158 161 161 162 164 167 169 169 174 175 176 178 179 182 181 182 181 179 171 161 167 176 177 186 186 184 190 196 200 202 200 199 198 197 197 202 213 220 216 215 217 214 195 188 207 186 145 143
287 328 303 292 72 93 101 114 170 191 108 106 129 130 120 149 173 158 135 64 36 346 43 24 136 112 115 130 138 145 144 142 141 143 144 142 140 135 134 136 137 140 142 141 141 142 145 148 151 157 160 160 163 164 168 170 169 170 170 173 177 177 179 180 184 184 184 177 164 168 175 178 186 189 188 190 197 207 208 202 201 200 198 197 200 210 218 220 219 223 227 208 194 206 193 152 150
281 327 286 297 46 41 47 86 115 44 61 113 133 145 137 144 149 164 125 80 336 274 1 21 44 92 152 148 156 156 148 147 146 147 145 141 146 142 135 134 136 142 143 143 145 146 147 148 152 157 158 160 163 165 169 172 172 170 170 172 174 176 178 181 183 183 184 180 169 168 175 179 184 191 191 188 197 208 209 204 204 202 200 202 200 206 214 216 219 226 232 219 201 200 193 165 157
285 301 292 15 44 30 16 27 59 54 71 104 135 139 113 127 144 150 107 111 182 225 32 37 24 23 164 152 165 157 148 152 151 148 145 144 147 143 138 135 136 141 143 145 147 148 149 149 154 157 159 162 164 166 169 173 173 172 173 173 173 177 180 182 182 180 179 176 171 170 179 185 185 191 193 193 199 204 206 207 206 204 203 205 205 209 214 215 219 223 225 218 203 200 199 180 171
271 279 313 41 49 39 18 12 27 61 93 96 134 137 111 130 158 139 109 113 125 100 76 57 9 11 128 141 152 156 152 155 156 150 148 148 148 147 143 137 138 142 143 148 150 149 151 152 154 158 161 164 163 165 169 173 175 173 174 175 175 178 179 180 180 177 175 175 173 171 183 193 190 191 194 197 201 200 204 206 203 204 203 202 205 208 212 215 218 219 221 223 213 209 205 186 186
302 330 27 48 51 48 36 29 22 37 82 94 119 124 115 118 148 143 117 108 103 96 89 71 23 8 330 157 147 159 160 159 161 154 153 154 155 155 148 145 147 146 146 149 151 150 152 155 156 160 163 165 163 163 168 172 174 172 174 178 177 178 178 177 179 179 178 180 180 180 187 191 191 196 198 201 205 203 203 202 198 203 206 202 203 206 209 211 214 216 219 226 225 217 207 190 202
336 29 46 55 71 71 57 49 40 29 64 95 107 110 98 107 143 136 119 138 117 108 106 90 65 20 300 191 153 167 168 166 166 158 161 163 162 161 155 155 152 150 153 152 155 155 153 157 159 161 164 166 163 161 166 169 172 172 174 180 180 179 178 177 177 179 181 182 182 184 187 185 189 198 202 202 207 204 199 197 195 200 203 201 202 208 207 204 206 213 216 221 226 219 205 196 209
322 43 45 70 96 91 78 69 61 35 45 74 89 114 100 111 140 122 126 150 134 140 136 120 114 146 251 195 158 174 176 170 169 163 167 170 166 162 160 160 156 155 158 155 156 157 155 159 161 162 165 166 164 163 166 168 173 174 176 181 182 180 179 175 174 178 184 184 181 182 184 185 187 195 200 200 202 201 195 195 198 200 203 202 203 209 208 203 202 207 214 212 218 218 206 205 217
326 53 37 60 90 91 82 79 77 58 50 53 73 114 95 110 135 119 144 160 142 180 175 153 151 183 210 183 164 175 176 173 172 170 173 174 168 163 164 164 161 156 156 154 154 158 158 159 161 161 164 167 168 167 169 171 175 176 179 182 181 182 180 175 178 183 186 187 184 182 185 188 187 193 198 196 196 197 193 193 198 201 204 204 202 206 207 204 203 205 211 211 214 218 210 212 217
336 65 56 49 76 89 80 77 85 78 79 50 46 54 80 148 236 130 156 164 125 174 172 158 163 188 194 172 167 170 175 179 175 176 175 173 169 166 165 163 159 151 149 154 157 158 158 159 161 161 162 167 170 171 172 171 175 182 183 185 183 182 183 179 180 181 184 191 184 177 183 188 185 189 193 190 193 199 197 193 195 200 201 202 201 204 207 204 205 207 209 212 214 214 215 219 216
356 77 78 53 66 84 84 86 108 37 54 31 35 1 9 47 286 112 155 146 129 158 161 159 164 177 187 169 169 174 180 183 177 179 176 176 180 172 163 161 159 148 145 155 161 157 156 160 163 163 164 166 169 173 172 167 173 184 183 185 186 183 184 181 177 177 185 189 179 175 182 185 184 187 189 187 190 199 201 195 195 199 198 200 202 204 208 205 203 208 212 213 212 214 218 224 224
22 62 93 81 68 70 73 82 71 52 57 35 15 320 15 12 330 56 62 137 136 153 155 157 161 166 184 178 173 181 185 185 177 178 180 185 179 165 164 156 147 144 146 154 158 158 159 161 165 165 166 166 166 169 170 169 171 177 176 179 188 183 175 172 171 171 177 183 180 181 186 188 188 189 190 188 187 194 197 194 194 194 192 199 202 202 205 203 204 209 214 214 213 218 220 223 226
37 21 43 86 81 67 60 74 78 66 83 63 307 359 46 4 322 341 10 123 134 143 147 153 157 166 178 174 183 189 181 185 188 181 178 190 173 153 157 125 123 142 151 155 152 154 161 160 164 167 165 167 167 169 169 171 168 169 177 179 188 185 170 165 169 168 168 172 174 179 184 185 186 189 190 183 180 189 190 189 193 192 190 195 197 201 202 200 205 207 208 213 216 219 221 221 221
43 349 351 57 70 68 45 60 83 51 112 90 343 9 41 29 337 297 165 130 132 130 138 147 153 169 170 166 195 207 184 181 193 183 155 128 75 69 63 77 93 116 127 148 144 147 164 163 163 168 167 170 168 170 170 173 174 170 175 182 189 190 179 177 181 180 175 171 170 178 185 182 181 187 184 176 175 186 186 184 190 190 191 190 189 200 205 202 204 203 205 211 215 218 219 220 219
355 313 331 62 81 91 63 51 80 42 146 102 27 1 3 26 357 277 153 129 111 112 130 138 146 171 171 173 184 197 200 189 177 155 111 78 68 72 78 85 83 92 95 98 115 134 163 164 165 172 170 174 172 175 176 179 187 182 178 183 191 189 183 187 184 179 178 176 176 181 187 181 179 183 179 175 179 186 184 183 187 189 191 187 185 198 205 203 204 203 209 211 211 215 218 220 217
290 308 274 182 129 103 107 146 94 45 152 91 80 257 321 316 310 307 271 111 101 106 126 124 149 176 170 184 182 190 205 192 149 109 82 82 90 103 120 114 106 121 119 112 119 137 165 165 165 170 172 178 178 183 181 181 191 190 184 186 193 190 185 189 185 174 172 176 178 178 182 183 182 182 179 181 184 184 183 183 184 188 192 189 187 197 201 201 203 202 208 210 211 213 214 217 215
275 278 261 196 152 137 129 153 75 69 82 88 141 204 221 228 245 268 265 107 111 126 117 119 168 185 167 179 187 214 213 185 136 95 84 102 116 128 138 136 133 138 135 137 145 147 159 165 162 163 172 179 182 186 180 178 185 183 184 186 190 191 190 193 189 178 171 172 175 175 176 177 182 183 180 184 184 180 182 180 180 187 190 189 190 198 201 198 200 202 205 207 211 213 214 215 215
268 256 251 210 181 166 142 183 211 195 121 104 185 265 298 220 235 258 299 84 122 138 135 141 179 183 168 177 185 222 217 240 177 111 114 136 138 141 147 154 151 144 144 149 155 141 133 159 159 160 171 176 185 186 177 180 181 180 186 188 187 191 197 197 190 180 178 177 174 176 177 175 178 178 177 186 182 175 179 174 179 191 188 187 192 196 195 193 196 200 199 203 210 215 220 214 207
259 264 248 232 215 147 160 188 196 199 147 158 226 315 307 201 210 218 293 312 139 141 162 159 166 168 169 184 189 207 188 223 195 112 129 159 147 145 149 157 163 156 152 150 157 148 138 161 157 162 171 174 188 181 176 186 181 182 188 188 187 189 199 200 192 183 182 181 173 176 181 178 175 172 174 182 179 174 175 171 182 189 181 187 195 191 187 188 193 195 194 199 206 211 218 209 200
230 259 263 255 193 129 169 190 167 252 151 177 224 298 299 172 193 190 173 249 181 145 171 152 152 172 174 194 197 200 196 206 181 113 138 166 148 150 150 151 162 164 159 154 158 155 154 164 154 162 168 171 184 177 180 187 183 188 183 184 188 184 192 198 196 183 175 176 174 181 184 179 176 174 175 179 176 173 173 173 183 182 177 186 189 185 186 188 191 193 195 198 198 206 208 198 200
224 231 276 284 168 138 160 180 159 104 292 202 205 260 309 235 207 187 164 227 215 152 163 146 155 182 178 192 201 190 199 199 168 117 147 167 154 160 157 153 159 163 165 162 163 160 155 158 154 164 170 173 180 177 181 182 186 195 183 188 191 186 191 193 194 182 173 177 176 183 184 178 180 179 178 179 175 172 173 174 181 179 179 184 178 181 188 188 191 192 199 204 197 203 205 192 200
279 254 269 292 355 138 153 150 157 186 230 228 225 239 259 246 214 172 162 224 251 160 160 158 164 191 179 190 206 183 190 191 160 140 162 165 159 162 162 163 162 163 169 168 167 168 160 159 158 165 173 175 174 176 179 177 184 191 193 202 195 195 195 185 194 189 177 177 175 181 183 180 183 182 180 181 175 170 174 178 182 180 181 182 174 180 187 189 197 191 197 212 197 195 211 198 202
342 331 321 327 351 344 146 138 164 196 225 283 276 264 261 268 189 145 165 216 267 172 164 169 180 196 182 196 210 168 175 178 139 168 174 166 165 164 162 165 165 167 174 174 172 174 172 169 165 167 173 173 171 178 177 173 183 186 193 204 200 204 199 183 197 199 180 173 175 180 183 182 184 182 181 182 176 173 179 182 182 181 185 181 174 183 189 193 201 188 185 208 194 190 215 218 220
350 321 317 308 303 292 266 170 128 122 313 293 291 307 313 315 19 139 169 200 239 224 168 168 183 196 182 194 192 136 139 113 125 210 189 175 174 167 163 166 170 171 174 177 178 179 179 178 171 168 173 171 169 178 180 178 184 188 196 202 202 203 200 187 192 200 184 174 177 177 181 185 184 181 180 180 180 177 179 183 182 183 185 180 180 191 194 195 198 183 178 191 192 195 216 233 242
350 299 287 283 282 284 273 142 96 71 326 299 306 314 307 313 317 171 174 182 194 219 191 184 180 179 177 182 168 140 134 138 197 216 193 173 174 170 167 170 173 174 175 178 181 182 181 182 180 173 174 172 169 176 181 182 183 189 203 207 204 198 198 192 188 195 189 180 179 173 177 185 185 182 178 182 186 183 182 183 184 186 183 180 187 194 192 190 190 177 174 174 178 200 211 223 221
308 287 285 283 277 279 266 138 130 145 268 296 293 298 303 308 303 268 195 187 178 166 241 262 219 170 166 191 186 156 141 148 176 210 192 167 174 177 173 174 177 176 177 180 181 183 181 183 184 177 178 181 179 181 182 187 191 193 203 208 208 197 195 196 191 193 190 186 184 177 175 181 185 184 181 188 191 187 187 183 184 188 182 182 191 194 188 183 180 173 175 169 174 206 210 213 224
290 283 282 281 271 270 255 137 131 150 209 282 294 312 305 291 300 326 325 192 117 120 183 280 309 115 150 211 213 166 152 146 155 195 200 174 177 180 174 176 178 176 180 184 184 185 181 183 186 180 181 186 187 187 187 190 195 200 205 209 210 197 192 195 189 188 188 187 186 182 179 182 187 187 185 190 191 189 190 184 183 187 183 186 195 192 175 168 174 175 177 178 183 203 205 217 237
270 263 268 271 270 272 254 129 166 187 203 279 344 312 284 269 259 22 20 46 72 94 117 8 360 50 140 227 230 176 170 153 152 181 195 179 179 181 179 178 177 177 181 184 186 187 184 182 184 184 182 184 189 190 188 186 190 202 204 203 208 193 185 187 175 175 182 184 183 181 185 189 188 187 187 188 189 189 189 185 184 186 185 189 194 184 166 164 175 176 175 182 184 187 197 223 233
256 250 259 271 278 281 282 225 205 192 191 197 326 289 285 286 119 109 87 100 94 86 75 40 8 6 27 35 74 184 210 174 159 173 186 183 180 184 186 182 179 181 183 187 187 186 187 183 183 189 186 183 192 194 187 185 188 196 195 189 192 176 172 176 171 173 177 181 183 181 189 197 190 186 188 187 188 189 187 186 187 187 187 189 189 181 173 174 177 178 177 181 188 189 183 221 221
266 252 250 254 262 278 298 325 305 243 203 191 226 292 306 89 100 83 222 136 96 81 76 33 325 272 302 136 137 139 268 221 180 176 179 185 186 185 185 182 182 184 187 191 189 185 187 184 183 188 186 184 191 192 187 190 188 184 185 185 182 176 176 179 181 181 179 182 186 182 186 196 191 187 189 189 191 191 188 187 189 188 187 186 186 184 180 178 178 182 181 178 189 194 186 203 231
272 272 277 266 250 269 303 309 286 278 258 195 214 279 298 98 77 25 8 95 101 122 222 251 212 203 200 233 203 152 188 237 211 185 179 183 186 185 182 184 186 185 189 191 187 187 185 181 182 184 184 184 185 186 187 189 183 179 186 189 186 187 186 186 189 186 182 186 187 183 183 190 190 188 192 193 191 192 190 190 191 189 186 185 185 185 183 181 183 185 183 181 186 190 191 198 232
263 275 308 298 297 295 283 276 264 280 289 209 203 237 273 294 50 32 16 112 135 178 230 218 205 214 194 210 247 196 180 212 223 191 179 177 180 189 185 185 192 189 188 189 185 186 184 180 181 180 182 184 180 183 188 187 182 181 188 193 194 197 194 188 190 186 184 187 187 185 183 186 189 190 192 193 193 193 191 191 193 192 188 186 186 187 185 184 186 186 183 182 187 193 196 188 200
258 295 344 322 312 296 281 287 285 287 298 271 241 252 273 307 117 172 214 218 195 196 208 202 195 222 217 210 219 209 169 169 208 156 117 100 222 241 211 188 195 198 191 189 183 181 182 181 179 177 184 187 181 182 187 187 185 183 188 197 199 203 202 184 181 187 184 183 186 188 186 183 186 190 191 192 193 193 192 192 194 196 191 186 189 190 187 187 187 190 189 185 190 195 192 190 198
257 312 341 307 284 283 280 282 283 288 297 296 295 288 282 271 156 174 192 239 297 195 206 242 175 152 145 233 213 213 167 144 182 137 113 150 210 273 262 210 195 200 195 188 181 177 175 177 180 181 186 189 185 185 187 187 187 185 188 199 201 204 206 180 173 184 186 186 188 189 190 185 185 191 192 191 193 192 192 193 194 197 194 189 192 191 189 192 190 192 192 187 192 193 189 200 201
281 307 306 279 263 258 260 267 280 290 285 292 300 288 279 261 159 262 134 143 41 66 96 27 102 127 121 136 199 222 166 141 181 141 116 155 163 244 268 247 205 195 193 188 181 178 174 175 181 182 186 190 189 189 189 189 189 188 190 198 203 203 205 181 172 179 184 192 193 190 195 190 186 193 194 193 195 194 194 194 195 197 195 192 194 193 193 194 193 190 188 187 192 191 189 201 200
289 286 275 282 271 243 255 281 288 284 281 289 293 291 295 308 21 349 74 91 59 83 134 94 102 109 100 83 14 26 146 159 171 158 144 155 135 157 250 270 266 218 194 186 178 175 175 177 178 178 184 191 190 188 189 191 192 191 191 196 202 202 199 186 180 182 184 192 197 196 198 195 193 196 195 194 196 196 196 195 197 198 197 196 194 195 195 193 192 186 185 189 192 193 194 194 201
241 249 258 275 278 266 264 265 263 265 276 283 308 345 316 320 345 352 76 84 39 53 325 110 97 82 67 45 19 14 268 173 150 147 155 159 136 140 190 269 296 309 281 189 175 169 171 176 175 176 187 191 188 187 188 192 193 192 192 197 203 203 198 186 182 189 191 193 200 201 200 199 201 201 199 199 198 197 197 197 198 198 198 199 195 193 198 197 194 187 185 190 190 197 199 192 200
213 225 236 251 267 273 267 261 255 258 270 281 351 21 296 307 19 12 93 97 358 45 354 70 87 77 53 38 29 348 314 95 123 146 155 157 157 142 146 169 285 318 334 351 195 174 166 175 176 176 186 189 189 191 190 191 193 193 195 200 203 203 203 194 188 193 195 194 201 208 207 204 205 207 204 204 202 200 200 198 200 201 198 201 198 196 202 207 203 194 188 193 195 199 199 195 206
226 234 247 254 260 262 275 287 269 270 283 268 274 329 312 29 3 288 105 107 244 106 87 88 90 85 60 29 23 338 318 70 129 166 149 145 144 137 144 141 133 163 204 303 274 201 169 186 187 180 183 185 189 193 188 186 190 195 204 209 203 201 204 204 201 201 199 197 199 208 218 214 209 212 210 207 204 203 204 200 200 203 200 200 201 200 204 209 207 200 194 198 200 198 196 199 211
261 264 275 271 270 257 264 279 281 289 297 271 272 339 15 60 239 240 88 73 280 62 78 106 105 95 85 42 2 338 332 348 163 154 119 118 124 126 144 142 128 136 166 198 244 230 190 199 199 191 188 181 182 183 177 179 188 198 211 212 204 202 202 204 208 210 209 204 198 202 222 227 218 215 214 212 207 204 205 202 200 204 203 200 200 201 204 208 209 204 200 201 201 198 198 201 208
283 260 274 313 310 291 278 277 287 294 284 287 12 18 13 350 250 280 33 335 10 30 26 106 110 112 109 91 12 359 0 338 328 85 103 114 126 135 149 144 134 133 153 195 232 243 220 210 205 198 186 171 171 176 181 192 194 198 204 202 202 201 198 203 209 213 215 210 203 203 214 230 234 227 221 217 212 207 206 203 200 203 205 203 199 198 202 208 209 203 201 204 204 201 202 203 208
261 260 295 351 305 283 296 298 300 300 282 316 7 328 16 6 290 336 330 293 353 12 356 84 109 121 117 107 87 20 9 317 326 67 107 133 139 149 154 148 142 144 156 179 205 226 231 222 208 196 178 164 174 183 198 206 204 205 206 202 206 206 199 202 207 211 216 214 211 209 210 223 239 236 229 224 218 211 206 205 204 203 203 204 202 200 202 206 205 199 200 208 207 203 201 200 205
268 288 312 330 292 277 302 289 288 298 287 351 330 302 168 146 271 18 341 329 4 5 10 33 49 69 109 123 129 93 28 347 338 25 131 150 157 155 150 150 145 146 153 162 184 211 222 225 207 183 172 179 180 179 191 204 209 212 212 207 210 214 207 205 208 211 216 218 218 214 212 217 220 223 230 230 223 217 210 207 205 203 203 205 205 204 202 203 205 201 200 206 205 204 205 202 202
237 264 280 274 271 282 282 265 267 290 277 204 292 301 7 13 23 51 29 17 19 6 20 35 20 17 80 117 107 86 66 23 313 294 249 191 201 160 141 151 147 141 148 154 170 200 211 216 198 162 164 178 178 175 178 190 204 214 219 215 213 217 215 212 213 215 218 221 223 219 216 216 213 219 231 230 220 220 218 211 207 205 205 205 205 205 203 202 206 205 203 205 203 202 204 203 202
222 226 246 245 246 248 252 264 269 282 281 249 249 277 296 346 32 67 46 17 28 4 16 45 19 3 63 110 108 105 95 94 279 274 234 204 200 147 143 155 145 135 144 152 162 178 190 199 185 159 166 178 179 180 181 188 198 206 216 221 221 221 218 215 219 223 224 226 227 225 223 223 220 224 231 230 221 220 219 212 209 208 207 205 204 205 205 201 202 204 206 208 208 206 205 204 205
273 264 265 268 272 263 261 271 268 269 276 268 114 146 239 308 347 52 27 321 12 52 44 17 355 329 313 111 119 127 101 109 266 261 217 188 187 158 157 155 141 135 144 153 158 164 174 186 175 157 173 195 195 192 194 195 196 200 208 216 223 225 221 220 223 227 232 233 232 229 227 229 231 229 229 229 226 222 219 214 211 209 209 208 205 204 205 203 202 203 206 208 208 207 206 204 206